Location: Evergreen Manor
(41.4083°N, 81.4939°W)
Time: 11:47:46
(UTC+00:00)

GRACE-FO 2 - Pass Details

Date: 11 December 2019
Orbit: 480 x 508 km, 89.0° (Epoch: 27 January)

Event Time Altitude Azimuth Distance (km) Brightness Sun altitude
Rises 11:04:20 0° 182° (S) 2,574 8.4 -17.6°
Reaches altitude 10° 11:06:25 10° 185° (S) 1,700 7.4 -17.2°
Maximum altitude 11:10:06 72° 269° (W) 534 4.5 -16.6°
Drops below altitude 10° 11:13:52 10° 355° (N) 1,727 7.1 -15.9°
Sets 11:16:00 0° 357° (N) 2,620 8.1 -15.5°
